Погода в Киеве

Погода в Киеве : погода сейчас, прогноз погоды и архив. Всё, что Вы хотите узнать о погоде в Киеве!

Хотите узнать прогноз погоды в Киеве? Тогда Вам сюда: Погода в Киеве

Поиск расширенной информации на нашем сайте:

Другие новости

Новости СМИ2

Главная страница сайта

Новости сайта

03.07.2017

Напоминаем, что на нашем специализированном сайте Метеоцентр.Азия вы можете получить высокодетализированные автоматические прогнозы погоды по пунктам России, СНГ и мира в авиационном формате (включающие направление и скорость ветра, видимость, явления погоды, количество и форму облачности, нижнюю и верхнюю границу облачности).

Рекомендуем: ремонт квартир цены

Погода в Киеве - сегодня

Время (UTC), дата Ветер
(°,м/с) 
Видим.   Явления Облачность Т
(°С)
Тd
(°С)
f(%) Тe
(°С)
Pmin
(гПа)
dP
(гПа)
Po
(мм)
O2
(г/м3)
Тmin Tmax R s Состояние
почвы
03 17.09.17 тихо ()   20000 м    ясно 
+13.4 +8 70 +13  1017.5  -0.4  748  286           
06 17.09.17 170 (Ю) 20000 м    ясно 
+18.4 +8.6 53 +19  1017.1  748  281  +12.5         
09 17.09.17 160 (Ю) 20000 м    1/0 верхняя 
[Ci fib]
+27.3 +11.5 37 +31  1015.3  -1.2  747  272           
12 17.09.17 210 (ЮЗ) 20000 м    4/0 верхняя 
[Ci]
+30 +8.9 27 +30  1012.5  -2.6  745  269           
15 17.09.17 210 (ЮЗ) 20000 м    8/0 верхняя 
[Cs]
+28.9 +9.2 29 +29  1010.6  -1.9  744  269           
18 17.09.17 190 (Ю) 20000 м    6/0 верхняя 
[Cs]
+22.8 +11.7 50 +26  1010.1  -0.9  743  274    +30.9       
21 17.09.17 190 (Ю) 20000 м    8/0 верхняя 
[Cc]
+21.2 +12.8 59 +27  1009.3  -0.9  743  275           
00 18.09.17 220 (ЮЗ) 20000 м    8/0 средняя 
[Ac trans]
+21.6 +9.9 47 +23  1007.4  -1.8  741  275           
03 18.09.17 260 (З) 20000 м    9/0 средняя 
[Ac trans]
+20.4 +10.8 54 +23  1008.5  742  276           
09 18.09.17 280 (З) 20000 м    1/0 верхняя 
[Ci fib]
+22.1 +5.4 34 +22  1011.5  1.5  744  277           
12 18.09.17 300 (СЗ) 20000 м    5/0 верхняя 
[Cs]
+22 +4 31 +22  1011.8  0.3  744  277           
15 18.09.17 280 (З) 20000 м    8/0 средняя, верхняя 
[Ac cast|Cs]
+20.7 +4.3 34 +21  1012.6  0.7  745  278           
18 18.09.17 270 (З) 20000 м    ясно 
+16.6 +5.7 48 +17  1014.5  1.6  746  282    +23.7       
21 18.09.17 290 (З) 20000 м    ясно 
+14.5 +5.4 54 +15  1016  1.3  747  285           
00 19.09.17 310 (СЗ) 20000 м    ясно 
+12.7 +5.4 61 +13  1017.1  748  287           
03 19.09.17 300 (СЗ) 20000 м    ясно 
+10.7 +6 73 +12  1017.9  0.6  748  289           
06 19.09.17 310 (СЗ) 20000 м    ясно 
+12.5 +6.4 66 +13  1019.5  1.7  750  288  +9.8         
09 19.09.17 020 (С) 20000 м    ясно 
+17.5 +5.8 46 +18  1019.6  0.4  750  283           
12 19.09.17 190 (Ю) 20000 м    3/0 верхняя 
[Ci fib]
+20.5 +3.9 33 +21  1018.7  -0.7  749  280           
15 19.09.17 тихо ()   20000 м    6/0 средняя 
[Ac trans]
+19.9 +5.6 39 +20  1018.2  -0.5  749  280           
00 20.09.17 060 (СВ) 10 км  в посл. час дождь  10/10 1200 м 
[Sc]
+12.1 +10.4 89 +15  1018.2  -1.1  749  287      11     
03 20.09.17 070 (В) 10 км  слаб. ливневой дождь{гроза}  8/8 600 м кучево-дожд. 
[Cb cap]
+12 +10.5 91 +14  1017.8  -0.4  748  287           
06 20.09.17 100 (В) 20000 м  слаб. ливневой дождь{гроза}  10/10 630 м кучево-дожд. 
[Cb cap]
+12.4 +10.3 87 +14  1017.3  -0.4  748  286  +11.7    17     
09 20.09.17 100 (В) 20000 м  в посл. час гроза{ливн. осадки}  9/6 600 м кучево-дожд., средняя, верхняя 
[Cb cap|Ac As|Ci ing]
+15.2 +11.3 78 +19  1014.7  -2.4  746  283           
12 20.09.17 тихо ()   10 км  гроза, ливневой дождь [макс. диам. градин 12 мм]  9/8 300 м кучево-дожд., средняя, верхняя 
[Cb calv|Ac As|Ci ing]
+16.5 +14.4 87 +24  1013.3  -1.3  745  280      18     
Время (UTC), дата Ветер
(°,м/с) 
Видим.   Явления Облачность Т
(°С)
Тd
(°С)
f(%) Тe
(°С)
Pmin
(гПа)
dP
(гПа)
Po
(мм)
O2
(г/м3)
Тmin Tmax R s Состояние
почвы

Для получения пояснительной информации подведите курсор к названию столбца.

ПОГОДА в Киеве - архив

Всё, что Вы хотите узнать о погоде в Киеве - удобно и подробно!

Выберите нужную дату (начиная с 1 января 2015* года) и нажмите кнопку "Найти".
Будут отображены архивные сводки погоды по пункту Киев, начиная с указанной даты.


Отображать данные в формате CSV (для использования в таблицах Excel)


Внимание! Наш архив погоды предназначен исключительно для личного некоммерческого использования в познавательных целях. Если Вам необходимы официальные справки о состоянии погоды (для производственных, юридических, коммерческих и т.п. целей), обращайтесь в органы Росгидромета.

*Примечание: данная дата относится к архиву по метеостанциям СССР (Россия, СНГ, Балтия).
Архив по метеостанциям Зарубежной Европы и Азии (кроме Китая) хранится 10 дней, по другим регионам земного шара (Китай, Африка, Америка, Австралия, Океания) - 1 день.

Киев - район местоположения метеостанции


Название, широта, долгота, высота метеостанции:
Киев (город) 50.4°ш. 30.6°д. 167 м над ур. моря [Украина]

Дополнительная информация

В oтличие oт бoльшинства пoгoдных сайтoв мы публикуем пoдрoбную метеoинфoрмацию в детальнoм прoфессиoнальнoм фoрмате.

Характеристики температуры и влажнoсти вoздуха измеряются на высoте 2 м в тени вдали oт зданий и деревьев.
Скoрoсть ветра измеряется на высoте 10 м (на урoвне рoста челoвека скoрoсть ветра ниже в 1.5-2 раза). Если метеoстанция нахoдится в гoрoде или в лесу, тo скoрoсть ветра занижена на 2-4 м/с пo сравнению с oткрытым местoм. Скoрoсть ветра над акватoриями крупных рек и oзёр, а также на вершинах хoлмoв на 2-5 м/с выше, чем в oбычных услoвиях.
Атмoсфернoе давление в разных тoчках местнoсти мoжет значительнo oтличаться oт давления на метеoстанции, в зависимoсти oт услoвий рельефа (при пoдъёме на 10 м давление пoнижается примернo на 1 мм рт.ст.).